Location: Bu�n Treun
(12.1333°N, 108.3167°E)
Time: 00:28:54
(UTC+00:00)

Cosmos 1745 Rocket - Pass Details

Date: 13 July 2020
Orbit: 954 x 997 km, 83.0° (Epoch: 03 August)

Event Time Altitude Azimuth Distance (km) Brightness Sun altitude
Rises 12:21:48 0° 185° (S) 3,629 6.8 -15.5°
Reaches altitude 10° 12:24:16 10° 186° (S) 2,688 6.1 -16.0°
Maximum altitude 12:30:26 83° 274° (W) 977 4.0 -17.4°
Drops below altitude 10° 12:36:39 10° 1° (N) 2,717 6.7 -18.7°
Sets 12:39:11 0° 3° (N) 3,671 7.4 -19.2°
